Time,TemperatureF,DewpointF,PressureIn,WindDirection,WindDirectionDegrees,WindSpeedMPH,WindSpeedGustMPH,Humidity,HourlyPrecipIn,Conditions,Clouds,dailyrainin,SoftwareType,DateUTC
2013-03-28 00:00:00,29.7,12.7,27.05,North,0,0.0,0.0,49,0.00,NA,NA,-99.99,wxupload 3.5,2013-03-28 04:00:00,
2013-03-28 00:02:00,29.7,12.7,27.05,North,0,0.0,0.0,49,0.00,NA,NA,-99.99,wxupload 3.5,2013-03-28 04:02:00,
2013-03-28 00:04:00,29.7,12.7,27.05,North,0,0.0,0.0,49,0.00,NA,NA,-99.99,wxupload 3.5,2013-03-28 04:04:00,
2013-03-28 00:10:00,29.7,12.7,27.05,North,0,0.0,0.0,49,0.00,NA,NA,-99.99,wxupload 3.5,2013-03-28 04:10:00,
2013-03-28 00:17:00,29.7,12.7,27.05,North,0,0.0,0.0,49,0.00,NA,NA,-99.99,wxupload 3.5,2013-03-28 04:17:00,
2013-03-28 00:23:00,29.8,12.4,27.05,North,0,0.0,0.0,48,0.00,NA,NA,-99.99,wxupload 3.5,2013-03-28 04:23:00,
2013-03-28 00:29:00,29.8,12.4,27.05,North,0,0.0,0.0,48,0.00,NA,NA,-99.99,wxupload 3.5,2013-03-28 04:29:00,
2013-03-28 00:30:00,29.8,12.4,27.05,North,0,0.0,0.0,48,0.00,NA,NA,-99.99,wxupload 3.5,2013-03-28 04:30:00,
2013-03-28 00:36:00,29.8,12.4,27.05,North,0,0.0,0.0,48,0.00,NA,NA,-99.99,wxupload 3.5,2013-03-28 04:36:00,
2013-03-28 00:42:00,29.8,12.4,27.05,North,0,0.0,0.0,48,0.00,NA,NA,-99.99,wxupload 3.5,2013-03-28 04:42:00,
2013-03-28 00:48:00,30.0,12.6,27.05,North,0,0.0,0.0,48,0.00,NA,NA,-99.99,wxupload 3.5,2013-03-28 04:48:00,
2013-03-28 00:54:00,30.0,12.6,27.05,North,0,0.0,0.0,48,0.00,NA,NA,-99.99,wxupload 3.5,2013-03-28 04:54:00,
2013-03-28 01:00:00,30.0,13.1,27.05,North,0,0.0,0.0,49,0.00,NA,NA,-99.99,wxupload 3.5,2013-03-28 05:00:00,
2013-03-28 01:07:00,30.0,12.6,27.05,North,0,0.0,0.0,48,0.00,NA,NA,-99.99,wxupload 3.5,2013-03-28 05:07:00,
2013-03-28 01:12:00,30.0,12.6,27.05,North,0,0.0,0.0,48,0.00,NA,NA,-99.99,wxupload 3.5,2013-03-28 05:12:00,
2013-03-28 01:18:00,30.0,12.6,27.05,North,0,0.0,0.0,48,0.00,NA,NA,-99.99,wxupload 3.5,2013-03-28 05:18:00,
2013-03-28 01:25:00,30.0,12.6,27.05,North,0,0.0,0.0,48,0.00,NA,NA,-99.99,wxupload 3.5,2013-03-28 05:25:00,
2013-03-28 01:31:00,30.0,12.6,27.05,North,0,0.0,0.0,48,0.00,NA,NA,-99.99,wxupload 3.5,2013-03-28 05:31:00,
2013-03-28 01:37:00,30.0,12.6,27.05,North,0,0.0,0.0,48,0.00,NA,NA,-99.99,wxupload 3.5,2013-03-28 05:37:00,
2013-03-28 01:42:00,30.0,12.6,27.05,North,0,0.0,0.0,48,0.00,NA,NA,-99.99,wxupload 3.5,2013-03-28 05:42:00,
2013-03-28 01:48:00,30.0,12.6,27.05,North,0,0.0,0.0,48,0.00,NA,NA,-99.99,wxupload 3.5,2013-03-28 05:48:00,
2013-03-28 01:54:00,30.0,12.6,27.05,North,0,0.0,0.0,48,0.00,NA,NA,-99.99,wxupload 3.5,2013-03-28 05:54:00,
2013-03-28 02:00:00,30.0,12.6,27.05,North,0,0.0,0.0,48,0.00,NA,NA,-99.99,wxupload 3.5,2013-03-28 06:00:00,
2013-03-28 02:08:00,30.0,12.6,27.05,North,0,0.0,0.0,48,0.00,NA,NA,-99.99,wxupload 3.5,2013-03-28 06:08:00,
2013-03-28 02:14:00,29.8,12.4,27.05,North,0,0.0,0.0,48,0.00,NA,NA,-99.99,wxupload 3.5,2013-03-28 06:14:00,
2013-03-28 02:21:00,29.7,12.3,27.05,North,0,0.0,0.0,48,0.00,NA,NA,-99.99,wxupload 3.5,2013-03-28 06:21:00,
2013-03-28 02:27:00,29.5,12.1,27.05,North,0,0.0,0.0,48,0.00,NA,NA,-99.99,wxupload 3.5,2013-03-28 06:27:00,
2013-03-28 02:33:00,29.5,12.1,27.05,North,0,0.0,0.0,48,0.00,NA,NA,-99.99,wxupload 3.5,2013-03-28 06:33:00,
2013-03-28 02:38:00,29.5,12.1,27.05,North,0,0.0,0.0,48,0.00,NA,NA,-99.99,wxupload 3.5,2013-03-28 06:38:00,
2013-03-28 02:44:00,29.5,12.1,27.05,North,0,0.0,0.0,48,0.00,NA,NA,-99.99,wxupload 3.5,2013-03-28 06:44:00,
2013-03-28 02:50:00,29.3,11.9,27.05,North,0,0.0,0.0,48,0.00,NA,NA,-99.99,wxupload 3.5,2013-03-28 06:50:00,
2013-03-28 02:56:00,29.1,11.8,27.05,North,0,0.0,0.0,48,0.00,NA,NA,-99.99,wxupload 3.5,2013-03-28 06:56:00,
2013-03-28 03:02:00,29.1,11.8,27.05,North,0,0.0,0.0,48,0.00,NA,NA,-99.99,wxupload 3.5,2013-03-28 07:02:00,
2013-03-28 03:08:00,28.9,11.1,27.05,North,0,0.0,0.0,47,0.00,NA,NA,-99.99,wxupload 3.5,2013-03-28 07:08:00,
2013-03-28 03:14:00,28.8,11.0,27.05,North,0,0.0,0.0,47,0.00,NA,NA,-99.99,wxupload 3.5,2013-03-28 07:14:00,
2013-03-28 03:20:00,28.8,11.0,27.05,North,0,0.0,0.0,47,0.00,NA,NA,-99.99,wxupload 3.5,2013-03-28 07:20:00,
2013-03-28 03:26:00,28.8,11.0,27.05,North,0,0.0,0.0,47,0.00,NA,NA,-99.99,wxupload 3.5,2013-03-28 07:26:00,
2013-03-28 03:32:00,28.8,11.0,27.05,North,0,0.0,0.0,47,0.00,NA,NA,-99.99,wxupload 3.5,2013-03-28 07:32:00,
2013-03-28 03:38:00,28.8,11.4,27.05,North,0,0.0,0.0,48,0.00,NA,NA,-99.99,wxupload 3.5,2013-03-28 07:38:00,
2013-03-28 03:44:00,28.8,11.4,27.05,North,0,0.0,0.0,48,0.00,NA,NA,-99.99,wxupload 3.5,2013-03-28 07:44:00,
2013-03-28 03:50:00,28.8,11.4,27.05,North,0,0.0,0.0,48,0.00,NA,NA,-99.99,wxupload 3.5,2013-03-28 07:50:00,
2013-03-28 03:56:00,28.8,11.4,27.05,North,0,0.0,0.0,48,0.00,NA,NA,-99.99,wxupload 3.5,2013-03-28 07:56:00,
2013-03-28 04:02:00,28.8,11.9,27.05,North,0,0.0,0.0,49,0.00,NA,NA,-99.99,wxupload 3.5,2013-03-28 08:02:00,
2013-03-28 04:08:00,28.8,11.9,27.05,North,0,0.0,0.0,49,0.00,NA,NA,-99.99,wxupload 3.5,2013-03-28 08:08:00,
2013-03-28 04:14:00,28.8,11.9,27.05,North,0,0.0,0.0,49,0.00,NA,NA,-99.99,wxupload 3.5,2013-03-28 08:14:00,
2013-03-28 04:20:00,28.8,11.9,27.05,North,0,0.0,0.0,49,0.00,NA,NA,-99.99,wxupload 3.5,2013-03-28 08:20:00,
2013-03-28 04:26:00,28.6,11.7,27.05,North,0,0.0,0.0,49,0.00,NA,NA,-99.99,wxupload 3.5,2013-03-28 08:26:00,
2013-03-28 04:32:00,28.6,11.7,27.05,North,0,0.0,0.0,49,0.00,NA,NA,-99.99,wxupload 3.5,2013-03-28 08:32:00,
2013-03-28 04:38:00,28.6,11.7,27.05,North,0,0.0,0.0,49,0.00,NA,NA,-99.99,wxupload 3.5,2013-03-28 08:38:00,
2013-03-28 04:44:00,28.8,11.9,27.05,North,0,0.0,0.0,49,0.00,NA,NA,-99.99,wxupload 3.5,2013-03-28 08:44:00,
2013-03-28 04:50:00,28.8,11.9,27.05,North,0,0.0,0.0,49,0.00,NA,NA,-99.99,wxupload 3.5,2013-03-28 08:50:00,
2013-03-28 04:56:00,28.8,11.9,27.05,North,0,0.0,0.0,49,0.00,NA,NA,-99.99,wxupload 3.5,2013-03-28 08:56:00,
2013-03-28 05:02:00,28.9,12.1,27.05,North,0,0.0,0.0,49,0.00,NA,NA,-99.99,wxupload 3.5,2013-03-28 09:02:00,
2013-03-28 05:09:00,28.9,12.1,27.05,North,0,0.0,0.0,49,0.00,NA,NA,-99.99,wxupload 3.5,2013-03-28 09:09:00,
2013-03-28 05:15:00,29.1,12.2,27.05,North,0,0.0,0.0,49,0.00,NA,NA,-99.99,wxupload 3.5,2013-03-28 09:15:00,
2013-03-28 05:21:00,29.1,12.2,27.05,North,0,0.0,0.0,49,0.00,NA,NA,-99.99,wxupload 3.5,2013-03-28 09:21:00,
2013-03-28 05:26:00,29.3,12.4,27.05,North,0,0.0,0.0,49,0.00,NA,NA,-99.99,wxupload 3.5,2013-03-28 09:26:00,
2013-03-28 05:32:00,29.3,12.4,27.05,North,0,0.0,0.0,49,0.00,NA,NA,-99.99,wxupload 3.5,2013-03-28 09:32:00,
2013-03-28 05:38:00,29.3,12.4,27.05,North,0,0.0,0.0,49,0.00,NA,NA,-99.99,wxupload 3.5,2013-03-28 09:38:00,
2013-03-28 05:44:00,29.3,11.9,27.05,North,0,0.0,0.0,48,0.00,NA,NA,-99.99,wxupload 3.5,2013-03-28 09:44:00,
2013-03-28 05:50:00,29.3,11.9,27.05,North,0,0.0,0.0,48,0.00,NA,NA,-99.99,wxupload 3.5,2013-03-28 09:50:00,
2013-03-28 05:56:00,29.5,12.1,27.05,North,0,0.0,0.0,48,0.00,NA,NA,-99.99,wxupload 3.5,2013-03-28 09:56:00,
2013-03-28 06:02:00,29.5,12.1,27.05,North,0,0.0,0.0,48,0.00,NA,NA,-99.99,wxupload 3.5,2013-03-28 10:02:00,
2013-03-28 06:08:00,29.5,12.1,27.05,North,0,0.0,0.0,48,0.00,NA,NA,-99.99,wxupload 3.5,2013-03-28 10:08:00,
2013-03-28 06:14:00,29.5,12.1,27.05,North,0,0.0,0.0,48,0.00,NA,NA,-99.99,wxupload 3.5,2013-03-28 10:14:00,
2013-03-28 06:20:00,29.5,12.1,27.05,North,0,0.0,0.0,48,0.00,NA,NA,-99.99,wxupload 3.5,2013-03-28 10:20:00,
2013-03-28 06:26:00,29.5,12.1,27.05,North,0,0.0,0.0,48,0.00,NA,NA,-99.99,wxupload 3.5,2013-03-28 10:26:00,
2013-03-28 06:32:00,29.5,12.1,27.05,North,0,0.0,0.0,48,0.00,NA,NA,-99.99,wxupload 3.5,2013-03-28 10:32:00,
2013-03-28 06:38:00,29.5,12.1,27.05,North,0,0.0,0.0,48,0.00,NA,NA,-99.99,wxupload 3.5,2013-03-28 10:38:00,
2013-03-28 06:44:00,29.5,12.1,27.05,North,0,0.0,0.0,48,0.00,NA,NA,-99.99,wxupload 3.5,2013-03-28 10:44:00,
2013-03-28 06:50:00,29.5,12.1,27.05,North,0,0.0,0.0,48,0.00,NA,NA,-99.99,wxupload 3.5,2013-03-28 10:50:00,
2013-03-28 06:56:00,29.5,12.1,27.05,North,0,0.0,0.0,48,0.00,NA,NA,-99.99,wxupload 3.5,2013-03-28 10:56:00,
2013-03-28 07:02:00,29.5,12.1,27.05,North,0,0.0,0.0,48,0.00,NA,NA,-99.99,wxupload 3.5,2013-03-28 11:02:00,
2013-03-28 07:08:00,29.5,12.6,27.05,North,0,0.0,0.0,49,0.00,NA,NA,-99.99,wxupload 3.5,2013-03-28 11:08:00,
2013-03-28 07:14:00,29.5,12.6,27.05,North,0,0.0,0.0,49,0.00,NA,NA,-99.99,wxupload 3.5,2013-03-28 11:14:00,
2013-03-28 07:20:00,29.5,12.6,27.05,North,0,0.0,0.0,49,0.00,NA,NA,-99.99,wxupload 3.5,2013-03-28 11:20:00,
2013-03-28 07:26:00,29.5,12.6,27.05,North,0,0.0,0.0,49,0.00,NA,NA,-99.99,wxupload 3.5,2013-03-28 11:26:00,
2013-03-28 07:32:00,29.5,12.6,27.05,North,0,0.0,0.0,49,0.00,NA,NA,-99.99,wxupload 3.5,2013-03-28 11:32:00,
2013-03-28 07:38:00,29.5,12.6,27.05,North,0,0.0,0.0,49,0.00,NA,NA,-99.99,wxupload 3.5,2013-03-28 11:38:00,
2013-03-28 07:45:00,29.5,12.6,27.05,North,0,0.0,0.0,49,0.00,NA,NA,-99.99,wxupload 3.5,2013-03-28 11:45:00,
2013-03-28 07:51:00,29.5,12.6,27.05,North,0,0.0,0.0,49,0.00,NA,NA,-99.99,wxupload 3.5,2013-03-28 11:51:00,
2013-03-28 07:57:00,29.7,12.7,27.05,North,0,0.0,0.0,49,0.00,NA,NA,-99.99,wxupload 3.5,2013-03-28 11:57:00,
2013-03-28 08:02:00,29.7,12.7,27.05,North,0,0.0,0.0,49,0.00,NA,NA,-99.99,wxupload 3.5,2013-03-28 12:02:00,
2013-03-28 08:08:00,29.7,12.7,27.05,North,0,0.0,0.0,49,0.00,NA,NA,-99.99,wxupload 3.5,2013-03-28 12:08:00,
2013-03-28 08:14:00,29.7,12.7,27.05,North,0,0.0,0.0,49,0.00,NA,NA,-99.99,wxupload 3.5,2013-03-28 12:14:00,
2013-03-28 08:20:00,29.7,12.7,27.05,North,0,0.0,0.0,49,0.00,NA,NA,-99.99,wxupload 3.5,2013-03-28 12:20:00,
2013-03-28 08:26:00,29.7,12.7,27.05,North,0,0.0,0.0,49,0.00,NA,NA,-99.99,wxupload 3.5,2013-03-28 12:26:00,
2013-03-28 08:32:00,29.7,12.7,27.05,North,0,0.0,0.0,49,0.00,NA,NA,-99.99,wxupload 3.5,2013-03-28 12:32:00,
2013-03-28 08:38:00,29.8,12.9,27.05,North,0,0.0,0.0,49,0.00,NA,NA,-99.99,wxupload 3.5,2013-03-28 12:38:00,
2013-03-28 08:44:00,29.8,12.9,27.05,North,0,0.0,0.0,49,0.00,NA,NA,-99.99,wxupload 3.5,2013-03-28 12:44:00,
2013-03-28 08:50:00,30.0,13.1,27.05,North,0,0.0,0.0,49,0.00,NA,NA,-99.99,wxupload 3.5,2013-03-28 12:50:00,
2013-03-28 08:56:00,30.0,13.1,27.05,North,0,0.0,0.0,49,0.00,NA,NA,-99.99,wxupload 3.5,2013-03-28 12:56:00,
2013-03-28 09:02:00,30.2,13.3,27.05,North,0,0.0,0.0,49,0.00,NA,NA,-99.99,wxupload 3.5,2013-03-28 13:02:00,
2013-03-28 09:08:00,30.2,13.3,27.05,North,0,0.0,0.0,49,0.00,NA,NA,-99.99,wxupload 3.5,2013-03-28 13:08:00,
2013-03-28 09:14:00,30.2,13.3,27.05,North,0,0.0,0.0,49,0.00,NA,NA,-99.99,wxupload 3.5,2013-03-28 13:14:00,
2013-03-28 09:20:00,30.2,13.3,27.05,North,0,0.0,0.0,49,0.00,NA,NA,-99.99,wxupload 3.5,2013-03-28 13:20:00,
2013-03-28 09:26:00,30.2,13.3,27.05,North,0,0.0,0.0,49,0.00,NA,NA,-99.99,wxupload 3.5,2013-03-28 13:26:00,
2013-03-28 09:32:00,30.2,13.3,27.05,North,0,0.0,0.0,49,0.00,NA,NA,-99.99,wxupload 3.5,2013-03-28 13:32:00,
2013-03-28 09:38:00,30.2,13.3,27.05,North,0,0.0,0.0,49,0.00,NA,NA,-99.99,wxupload 3.5,2013-03-28 13:38:00,
2013-03-28 09:44:00,30.2,13.3,27.05,North,0,0.0,0.0,49,0.00,NA,NA,-99.99,wxupload 3.5,2013-03-28 13:44:00,
2013-03-28 09:50:00,30.4,13.4,27.05,North,0,0.0,0.0,49,0.00,NA,NA,-99.99,wxupload 3.5,2013-03-28 13:50:00,
2013-03-28 09:56:00,30.4,13.4,27.05,North,0,0.0,0.0,49,0.00,NA,NA,-99.99,wxupload 3.5,2013-03-28 13:56:00,
2013-03-28 10:02:00,30.6,13.6,27.05,North,0,0.0,0.0,49,0.00,NA,NA,-99.99,wxupload 3.5,2013-03-28 14:02:00,
2013-03-28 10:08:00,30.7,13.8,27.05,North,0,0.0,0.0,49,0.00,NA,NA,-99.99,wxupload 3.5,2013-03-28 14:08:00,
2013-03-28 10:14:00,30.9,13.9,27.05,North,0,0.0,0.0,49,0.00,NA,NA,-99.99,wxupload 3.5,2013-03-28 14:14:00,
2013-03-28 10:21:00,31.1,14.1,27.05,North,0,0.0,0.0,49,0.00,NA,NA,-99.99,wxupload 3.5,2013-03-28 14:21:00,
2013-03-28 10:27:00,31.5,14.4,27.05,North,0,0.0,0.0,49,0.00,NA,NA,-99.99,wxupload 3.5,2013-03-28 14:27:00,
2013-03-28 10:32:00,31.5,14.4,27.05,North,0,0.0,0.0,49,0.00,NA,NA,-99.99,wxupload 3.5,2013-03-28 14:32:00,
2013-03-28 10:38:00,31.6,14.6,27.05,North,0,0.0,0.0,49,0.00,NA,NA,-99.99,wxupload 3.5,2013-03-28 14:38:00,
2013-03-28 10:44:00,31.6,14.6,27.05,North,0,0.0,0.0,49,0.00,NA,NA,-99.99,wxupload 3.5,2013-03-28 14:44:00,
2013-03-28 10:50:00,31.8,14.8,27.05,North,0,0.0,0.0,49,0.00,NA,NA,-99.99,wxupload 3.5,2013-03-28 14:50:00,
2013-03-28 10:58:00,31.6,14.6,27.05,North,0,0.0,0.0,49,0.00,NA,NA,-99.99,wxupload 3.5,2013-03-28 14:58:00,
2013-03-28 11:05:00,31.6,14.6,27.05,North,0,0.0,0.0,49,0.00,NA,NA,-99.99,wxupload 3.5,2013-03-28 15:05:00,
2013-03-28 11:10:00,31.6,14.6,27.05,North,0,0.0,0.0,49,0.00,NA,NA,-99.99,wxupload 3.5,2013-03-28 15:10:00,
2013-03-28 11:16:00,31.6,14.6,27.05,North,0,0.0,0.0,49,0.00,NA,NA,-99.99,wxupload 3.5,2013-03-28 15:16:00,
2013-03-28 11:22:00,31.6,14.6,27.05,North,0,0.0,0.0,49,0.00,NA,NA,-99.99,wxupload 3.5,2013-03-28 15:22:00,
2013-03-28 11:28:00,32.0,14.9,27.05,North,0,0.0,0.0,49,0.00,NA,NA,-99.99,wxupload 3.5,2013-03-28 15:28:00,
2013-03-28 11:34:00,32.2,15.1,27.05,North,0,0.0,0.0,49,0.00,NA,NA,-99.99,wxupload 3.5,2013-03-28 15:34:00,
2013-03-28 11:40:00,32.7,15.6,27.05,North,0,0.0,0.0,49,0.00,NA,NA,-99.99,wxupload 3.5,2013-03-28 15:40:00,
2013-03-28 11:46:00,32.9,15.8,27.05,North,0,0.0,0.0,49,0.00,NA,NA,-99.99,wxupload 3.5,2013-03-28 15:46:00,
2013-03-28 11:52:00,32.9,15.8,27.05,North,0,0.0,0.0,49,0.00,NA,NA,-99.99,wxupload 3.5,2013-03-28 15:52:00,
2013-03-28 11:58:00,33.1,15.9,27.05,North,0,0.0,0.0,49,0.00,NA,NA,-99.99,wxupload 3.5,2013-03-28 15:58:00,
2013-03-28 12:04:00,33.1,15.9,27.05,North,0,0.0,0.0,49,0.00,NA,NA,-99.99,wxupload 3.5,2013-03-28 16:04:00,
2013-03-28 12:10:00,33.1,15.5,27.05,North,0,0.0,0.0,48,0.00,NA,NA,-99.99,wxupload 3.5,2013-03-28 16:10:00,
2013-03-28 12:16:00,33.1,15.9,27.05,North,0,0.0,0.0,49,0.00,NA,NA,-99.99,wxupload 3.5,2013-03-28 16:16:00,
2013-03-28 12:22:00,33.1,15.9,27.05,North,0,0.0,0.0,49,0.00,NA,NA,-99.99,wxupload 3.5,2013-03-28 16:22:00,
2013-03-28 12:28:00,33.1,15.9,27.05,North,0,0.0,0.0,49,0.00,NA,NA,-99.99,wxupload 3.5,2013-03-28 16:28:00,
2013-03-28 12:34:00,33.1,15.9,27.05,North,0,0.0,0.0,49,0.00,NA,NA,-99.99,wxupload 3.5,2013-03-28 16:34:00,
2013-03-28 12:40:00,33.1,15.9,27.05,North,0,0.0,0.0,49,0.00,NA,NA,-99.99,wxupload 3.5,2013-03-28 16:40:00,
2013-03-28 12:46:00,33.1,15.9,27.05,North,0,0.0,0.0,49,0.00,NA,NA,-99.99,wxupload 3.5,2013-03-28 16:46:00,
2013-03-28 12:52:00,32.9,15.8,27.05,North,0,0.0,0.0,49,0.00,NA,NA,-99.99,wxupload 3.5,2013-03-28 16:52:00,
2013-03-28 12:58:00,32.9,15.8,27.05,North,0,0.0,0.0,49,0.00,NA,NA,-99.99,wxupload 3.5,2013-03-28 16:58:00,
2013-03-28 13:04:00,32.9,16.2,27.05,North,0,0.0,0.0,50,0.00,NA,NA,-99.99,wxupload 3.5,2013-03-28 17:04:00,
2013-03-28 13:10:00,32.9,16.2,27.05,North,0,0.0,0.0,50,0.00,NA,NA,-99.99,wxupload 3.5,2013-03-28 17:10:00,
2013-03-28 13:17:00,32.9,16.2,27.05,North,0,0.0,0.0,50,0.00,NA,NA,-99.99,wxupload 3.5,2013-03-28 17:17:00,
2013-03-28 13:23:00,33.1,16.4,27.05,North,0,0.0,0.0,50,0.00,NA,NA,-99.99,wxupload 3.5,2013-03-28 17:23:00,
2013-03-28 13:28:00,32.9,16.2,27.05,North,0,0.0,0.0,50,0.00,NA,NA,-99.99,wxupload 3.5,2013-03-28 17:28:00,
2013-03-28 13:34:00,32.7,16.1,27.05,North,0,0.0,0.0,50,0.00,NA,NA,-99.99,wxupload 3.5,2013-03-28 17:34:00,
2013-03-28 13:40:00,32.7,16.1,27.05,North,0,0.0,0.0,50,0.00,NA,NA,-99.99,wxupload 3.5,2013-03-28 17:40:00,
2013-03-28 13:46:00,32.7,16.1,27.05,North,0,0.0,0.0,50,0.00,NA,NA,-99.99,wxupload 3.5,2013-03-28 17:46:00,
2013-03-28 13:52:00,32.9,16.2,27.05,North,0,0.0,0.0,50,0.00,NA,NA,-99.99,wxupload 3.5,2013-03-28 17:52:00,
2013-03-28 13:58:00,32.9,16.2,27.05,North,0,0.0,0.0,50,0.00,NA,NA,-99.99,wxupload 3.5,2013-03-28 17:58:00,
2013-03-28 14:04:00,33.1,16.4,27.05,North,0,0.0,0.0,50,0.00,NA,NA,-99.99,wxupload 3.5,2013-03-28 18:04:00,
2013-03-28 14:10:00,33.1,16.4,27.05,North,0,0.0,0.0,50,0.00,NA,NA,-99.99,wxupload 3.5,2013-03-28 18:10:00,
2013-03-28 14:18:00,33.1,16.4,27.05,North,0,0.0,0.0,50,0.00,NA,NA,-99.99,wxupload 3.5,2013-03-28 18:18:00,
2013-03-28 14:24:00,33.1,16.4,27.05,North,0,0.0,0.0,50,0.00,NA,NA,-99.99,wxupload 3.5,2013-03-28 18:24:00,
2013-03-28 14:30:00,32.9,16.2,27.05,North,0,0.0,0.0,50,0.00,NA,NA,-99.99,wxupload 3.5,2013-03-28 18:30:00,
2013-03-28 14:36:00,32.9,16.2,27.05,North,0,0.0,0.0,50,0.00,NA,NA,-99.99,wxupload 3.5,2013-03-28 18:36:00,
2013-03-28 14:42:00,32.9,16.2,27.05,North,0,0.0,0.0,50,0.00,NA,NA,-99.99,wxupload 3.5,2013-03-28 18:42:00,
2013-03-28 14:48:00,32.9,16.2,27.05,North,0,0.0,0.0,50,0.00,NA,NA,-99.99,wxupload 3.5,2013-03-28 18:48:00,
2013-03-28 14:54:00,32.9,16.2,27.05,North,0,0.0,0.0,50,0.00,NA,NA,-99.99,wxupload 3.5,2013-03-28 18:54:00,
2013-03-28 15:00:00,32.9,16.2,27.05,North,0,0.0,0.0,50,0.00,NA,NA,-99.99,wxupload 3.5,2013-03-28 19:00:00,
2013-03-28 15:06:00,33.1,16.4,27.05,North,0,0.0,0.0,50,0.00,NA,NA,-99.99,wxupload 3.5,2013-03-28 19:06:00,
2013-03-28 15:12:00,33.1,16.4,27.05,North,0,0.0,0.0,50,0.00,NA,NA,-99.99,wxupload 3.5,2013-03-28 19:12:00,
2013-03-28 15:18:00,33.1,16.4,27.05,North,0,0.0,0.0,50,0.00,NA,NA,-99.99,wxupload 3.5,2013-03-28 19:18:00,
2013-03-28 15:24:00,33.1,16.4,27.05,North,0,0.0,0.0,50,0.00,NA,NA,-99.99,wxupload 3.5,2013-03-28 19:24:00,
2013-03-28 15:30:00,33.1,16.4,27.05,North,0,0.0,0.0,50,0.00,NA,NA,-99.99,wxupload 3.5,2013-03-28 19:30:00,
2013-03-28 15:36:00,33.1,15.9,27.05,North,0,0.0,0.0,49,0.00,NA,NA,-99.99,wxupload 3.5,2013-03-28 19:36:00,
2013-03-28 15:42:00,33.1,15.9,27.05,North,0,0.0,0.0,49,0.00,NA,NA,-99.99,wxupload 3.5,2013-03-28 19:42:00,
2013-03-28 15:48:00,33.1,15.9,27.05,North,0,0.0,0.0,49,0.00,NA,NA,-99.99,wxupload 3.5,2013-03-28 19:48:00,
2013-03-28 15:54:00,33.1,15.5,27.05,North,0,0.0,0.0,48,0.00,NA,NA,-99.99,wxupload 3.5,2013-03-28 19:54:00,
2013-03-28 16:00:00,33.1,15.5,27.05,North,0,0.0,0.0,48,0.00,NA,NA,-99.99,wxupload 3.5,2013-03-28 20:00:00,
2013-03-28 16:07:00,33.1,15.5,27.05,North,0,0.0,0.0,48,0.00,NA,NA,-99.99,wxupload 3.5,2013-03-28 20:07:00,
2013-03-28 16:12:00,33.1,15.5,27.05,North,0,0.0,0.0,48,0.00,NA,NA,-99.99,wxupload 3.5,2013-03-28 20:12:00,
2013-03-28 16:18:00,33.1,15.5,27.05,North,0,0.0,0.0,48,0.00,NA,NA,-99.99,wxupload 3.5,2013-03-28 20:18:00,
2013-03-28 16:24:00,33.1,15.5,27.05,North,0,0.0,0.0,48,0.00,NA,NA,-99.99,wxupload 3.5,2013-03-28 20:24:00,
2013-03-28 16:30:00,33.1,15.0,27.05,North,0,0.0,0.0,47,0.00,NA,NA,-99.99,wxupload 3.5,2013-03-28 20:30:00,
2013-03-28 16:36:00,33.1,15.0,27.05,North,0,0.0,0.0,47,0.00,NA,NA,-99.99,wxupload 3.5,2013-03-28 20:36:00,
2013-03-28 16:42:00,33.1,14.5,27.05,North,0,0.0,0.0,46,0.00,NA,NA,-99.99,wxupload 3.5,2013-03-28 20:42:00,
2013-03-28 16:48:00,33.1,14.5,27.05,North,0,0.0,0.0,46,0.00,NA,NA,-99.99,wxupload 3.5,2013-03-28 20:48:00,
2013-03-28 16:54:00,33.1,14.5,27.05,North,0,0.0,0.0,46,0.00,NA,NA,-99.99,wxupload 3.5,2013-03-28 20:54:00,
2013-03-28 17:00:00,33.1,14.5,27.05,North,0,0.0,0.0,46,0.00,NA,NA,-99.99,wxupload 3.5,2013-03-28 21:00:00,
2013-03-28 17:06:00,33.1,14.5,27.05,North,0,0.0,0.0,46,0.00,NA,NA,-99.99,wxupload 3.5,2013-03-28 21:06:00,
2013-03-28 17:12:00,33.1,14.0,27.05,North,0,0.0,0.0,45,0.00,NA,NA,-99.99,wxupload 3.5,2013-03-28 21:12:00,
2013-03-28 17:18:00,33.1,14.0,27.05,North,0,0.0,0.0,45,0.00,NA,NA,-99.99,wxupload 3.5,2013-03-28 21:18:00,
2013-03-28 17:24:00,33.1,14.0,27.05,North,0,0.0,0.0,45,0.00,NA,NA,-99.99,wxupload 3.5,2013-03-28 21:24:00,
2013-03-28 17:30:00,33.1,14.0,27.05,North,0,0.0,0.0,45,0.00,NA,NA,-99.99,wxupload 3.5,2013-03-28 21:30:00,
2013-03-28 17:36:00,33.1,14.0,27.05,North,0,0.0,0.0,45,0.00,NA,NA,-99.99,wxupload 3.5,2013-03-28 21:36:00,
2013-03-28 17:42:00,32.9,13.8,27.05,North,0,0.0,0.0,45,0.00,NA,NA,-99.99,wxupload 3.5,2013-03-28 21:42:00,
2013-03-28 17:48:00,32.9,14.3,27.05,North,0,0.0,0.0,46,0.00,NA,NA,-99.99,wxupload 3.5,2013-03-28 21:48:00,
2013-03-28 17:54:00,32.9,14.3,27.05,North,0,0.0,0.0,46,0.00,NA,NA,-99.99,wxupload 3.5,2013-03-28 21:54:00,
2013-03-28 18:00:00,32.7,14.1,27.05,North,0,0.0,0.0,46,0.00,NA,NA,-99.99,wxupload 3.5,2013-03-28 22:00:00,
2013-03-28 18:07:00,32.7,14.1,27.05,North,0,0.0,0.0,46,0.00,NA,NA,-99.99,wxupload 3.5,2013-03-28 22:07:00,
2013-03-28 18:13:00,32.7,14.1,27.05,North,0,0.0,0.0,46,0.00,NA,NA,-99.99,wxupload 3.5,2013-03-28 22:13:00,
2013-03-28 18:18:00,32.7,13.6,27.05,North,0,0.0,0.0,45,0.00,NA,NA,-99.99,wxupload 3.5,2013-03-28 22:18:00,
2013-03-28 18:24:00,32.5,13.5,27.05,North,0,0.0,0.0,45,0.00,NA,NA,-99.99,wxupload 3.5,2013-03-28 22:24:00,
2013-03-28 18:30:00,32.5,13.5,27.05,North,0,0.0,0.0,45,0.00,NA,NA,-99.99,wxupload 3.5,2013-03-28 22:30:00,
2013-03-28 18:36:00,32.5,13.5,27.05,North,0,0.0,0.0,45,0.00,NA,NA,-99.99,wxupload 3.5,2013-03-28 22:36:00,
2013-03-28 18:42:00,32.5,13.5,27.05,North,0,0.0,0.0,45,0.00,NA,NA,-99.99,wxupload 3.5,2013-03-28 22:42:00,
2013-03-28 18:48:00,32.5,13.5,27.05,North,0,0.0,0.0,45,0.00,NA,NA,-99.99,wxupload 3.5,2013-03-28 22:48:00,
2013-03-28 18:54:00,32.5,13.5,27.05,North,0,0.0,0.0,45,0.00,NA,NA,-99.99,wxupload 3.5,2013-03-28 22:54:00,
2013-03-28 19:00:00,32.5,13.0,27.05,North,0,0.0,0.0,44,0.00,NA,NA,-99.99,wxupload 3.5,2013-03-28 23:00:00,
2013-03-28 19:06:00,32.5,13.0,27.05,North,0,0.0,0.0,44,0.00,NA,NA,-99.99,wxupload 3.5,2013-03-28 23:06:00,
2013-03-28 19:12:00,32.5,13.0,27.05,North,0,0.0,0.0,44,0.00,NA,NA,-99.99,wxupload 3.5,2013-03-28 23:12:00,
2013-03-28 19:18:00,32.5,13.0,27.05,North,0,0.0,0.0,44,0.00,NA,NA,-99.99,wxupload 3.5,2013-03-28 23:18:00,
2013-03-28 19:24:00,32.4,12.8,27.05,North,0,0.0,0.0,44,0.00,NA,NA,-99.99,wxupload 3.5,2013-03-28 23:24:00,
2013-03-28 19:30:00,32.4,12.8,27.05,North,0,0.0,0.0,44,0.00,NA,NA,-99.99,wxupload 3.5,2013-03-28 23:30:00,
2013-03-28 19:36:00,32.4,12.8,27.05,North,0,0.0,0.0,44,0.00,NA,NA,-99.99,wxupload 3.5,2013-03-28 23:36:00,
2013-03-28 19:42:00,32.2,12.6,27.05,North,0,0.0,0.0,44,0.00,NA,NA,-99.99,wxupload 3.5,2013-03-28 23:42:00,
2013-03-28 19:49:00,32.2,12.6,27.05,North,0,0.0,0.0,44,0.00,NA,NA,-99.99,wxupload 3.5,2013-03-28 23:49:00,
2013-03-28 19:54:00,32.2,12.6,27.05,North,0,0.0,0.0,44,0.00,NA,NA,-99.99,wxupload 3.5,2013-03-28 23:54:00,
2013-03-28 20:00:00,32.0,12.5,27.05,North,0,0.0,0.0,44,0.00,NA,NA,-99.99,wxupload 3.5,2013-03-29 00:00:00,
2013-03-28 20:07:00,32.0,12.5,27.05,North,0,0.0,0.0,44,0.00,NA,NA,-99.99,wxupload 3.5,2013-03-29 00:07:00,
2013-03-28 20:12:00,32.0,12.5,27.05,North,0,0.0,0.0,44,0.00,NA,NA,-99.99,wxupload 3.5,2013-03-29 00:12:00,
2013-03-28 20:18:00,32.0,12.5,27.05,North,0,0.0,0.0,44,0.00,NA,NA,-99.99,wxupload 3.5,2013-03-29 00:18:00,
2013-03-28 20:24:00,32.0,12.5,27.05,North,0,0.0,0.0,44,0.00,NA,NA,-99.99,wxupload 3.5,2013-03-29 00:24:00,
2013-03-28 20:30:00,32.0,12.5,27.05,North,0,0.0,0.0,44,0.00,NA,NA,-99.99,wxupload 3.5,2013-03-29 00:30:00,
2013-03-28 20:36:00,32.0,12.5,27.05,North,0,0.0,0.0,44,0.00,NA,NA,-99.99,wxupload 3.5,2013-03-29 00:36:00,
2013-03-28 20:42:00,32.0,12.5,27.05,North,0,0.0,0.0,44,0.00,NA,NA,-99.99,wxupload 3.5,2013-03-29 00:42:00,
2013-03-28 20:48:00,32.0,12.5,27.05,North,0,0.0,0.0,44,0.00,NA,NA,-99.99,wxupload 3.5,2013-03-29 00:48:00,
2013-03-28 20:54:00,31.8,12.3,27.05,North,0,0.0,0.0,44,0.00,NA,NA,-99.99,wxupload 3.5,2013-03-29 00:54:00,
2013-03-28 21:00:00,31.6,12.1,27.05,North,0,0.0,0.0,44,0.00,NA,NA,-99.99,wxupload 3.5,2013-03-29 01:00:00,
2013-03-28 21:06:00,31.6,12.1,27.05,North,0,0.0,0.0,44,0.00,NA,NA,-99.99,wxupload 3.5,2013-03-29 01:06:00,
2013-03-28 21:12:00,31.6,11.6,27.05,North,0,0.0,0.0,43,0.00,NA,NA,-99.99,wxupload 3.5,2013-03-29 01:12:00,
2013-03-28 21:18:00,31.6,11.6,27.05,North,0,0.0,0.0,43,0.00,NA,NA,-99.99,wxupload 3.5,2013-03-29 01:18:00,
2013-03-28 21:24:00,31.6,11.6,27.05,North,0,0.0,0.0,43,0.00,NA,NA,-99.99,wxupload 3.5,2013-03-29 01:24:00,
2013-03-28 21:30:00,31.6,11.6,27.05,North,0,0.0,0.0,43,0.00,NA,NA,-99.99,wxupload 3.5,2013-03-29 01:30:00,
2013-03-28 21:37:00,31.6,11.6,27.05,North,0,0.0,0.0,43,0.00,NA,NA,-99.99,wxupload 3.5,2013-03-29 01:37:00,
2013-03-28 21:42:00,31.6,11.6,27.05,North,0,0.0,0.0,43,0.00,NA,NA,-99.99,wxupload 3.5,2013-03-29 01:42:00,
2013-03-28 21:48:00,31.6,11.6,27.05,North,0,0.0,0.0,43,0.00,NA,NA,-99.99,wxupload 3.5,2013-03-29 01:48:00,
2013-03-28 21:55:00,31.8,11.8,27.05,North,0,0.0,0.0,43,0.00,NA,NA,-99.99,wxupload 3.5,2013-03-29 01:55:00,
2013-03-28 22:01:00,31.8,11.2,27.05,North,0,0.0,0.0,42,0.00,NA,NA,-99.99,wxupload 3.5,2013-03-29 02:01:00,
2013-03-28 22:06:00,31.8,11.2,27.05,North,0,0.0,0.0,42,0.00,NA,NA,-99.99,wxupload 3.5,2013-03-29 02:06:00,
2013-03-28 22:12:00,31.8,11.2,27.05,North,0,0.0,0.0,42,0.00,NA,NA,-99.99,wxupload 3.5,2013-03-29 02:12:00,
2013-03-28 22:18:00,31.8,11.2,27.05,North,0,0.0,0.0,42,0.00,NA,NA,-99.99,wxupload 3.5,2013-03-29 02:18:00,
2013-03-28 22:24:00,31.8,11.2,27.05,North,0,0.0,0.0,42,0.00,NA,NA,-99.99,wxupload 3.5,2013-03-29 02:24:00,
2013-03-28 22:30:00,31.6,11.1,27.05,North,0,0.0,0.0,42,0.00,NA,NA,-99.99,wxupload 3.5,2013-03-29 02:30:00,
2013-03-28 22:36:00,31.5,10.9,27.05,North,0,0.0,0.0,42,0.00,NA,NA,-99.99,wxupload 3.5,2013-03-29 02:36:00,
2013-03-28 22:42:00,31.5,10.9,27.05,North,0,0.0,0.0,42,0.00,NA,NA,-99.99,wxupload 3.5,2013-03-29 02:42:00,
2013-03-28 22:48:00,31.5,10.9,27.05,North,0,0.0,0.0,42,0.00,NA,NA,-99.99,wxupload 3.5,2013-03-29 02:48:00,
2013-03-28 22:54:00,31.3,10.7,27.05,North,0,0.0,0.0,42,0.00,NA,NA,-99.99,wxupload 3.5,2013-03-29 02:54:00,
2013-03-28 23:00:00,31.3,10.7,27.05,North,0,0.0,0.0,42,0.00,NA,NA,-99.99,wxupload 3.5,2013-03-29 03:00:00,
2013-03-28 23:06:00,31.1,10.6,27.05,North,0,0.0,0.0,42,0.00,NA,NA,-99.99,wxupload 3.5,2013-03-29 03:06:00,
2013-03-28 23:12:00,31.1,10.6,27.05,North,0,0.0,0.0,42,0.00,NA,NA,-99.99,wxupload 3.5,2013-03-29 03:12:00,
2013-03-28 23:18:00,31.1,10.6,27.05,North,0,0.0,0.0,42,0.00,NA,NA,-99.99,wxupload 3.5,2013-03-29 03:18:00,
2013-03-28 23:24:00,31.1,10.6,27.05,North,0,0.0,0.0,42,0.00,NA,NA,-99.99,wxupload 3.5,2013-03-29 03:24:00,
2013-03-28 23:30:00,31.3,10.7,27.05,North,0,0.0,0.0,42,0.00,NA,NA,-99.99,wxupload 3.5,2013-03-29 03:30:00,
2013-03-28 23:36:00,31.3,10.7,27.05,North,0,0.0,0.0,42,0.00,NA,NA,-99.99,wxupload 3.5,2013-03-29 03:36:00,
2013-03-28 23:43:00,31.5,10.9,27.05,North,0,0.0,0.0,42,0.00,NA,NA,-99.99,wxupload 3.5,2013-03-29 03:43:00,
2013-03-28 23:48:00,31.5,10.9,27.05,North,0,0.0,0.0,42,0.00,NA,NA,-99.99,wxupload 3.5,2013-03-29 03:48:00,
2013-03-28 23:54:00,31.5,10.9,27.05,North,0,0.0,0.0,42,0.00,NA,NA,-99.99,wxupload 3.5,2013-03-29 03:54:00,